Location: Newark
(27.5000°N, 79.4000°E)
Time: 01:19:38
(UTC+00:00)

Starlink Launch 2 leader - Visible Passes

Search period start: 07 December 2019 00:00
Search period end: 17 December 2019 00:00
Orbit: 279 x 281 km, 53.0° (Epoch: 13 November)

Date Brightness Start Highest point End Pass type
(mag) Time Alt. Az. Time Alt. Az. Time Alt. Az.
10 Dec 4.7 00:53:31 10° N 00:55:21 18° NE 00:57:09 10° E visible
11 Dec 3.0 00:54:56 10° NNW 00:57:18 47° NE 00:59:41 10° SE visible
12 Dec 2.6 00:56:50 10° NW 00:59:13 49° SW 01:01:34 10° SSE visible
13 Dec 5.8 23:31:07 14° E 23:31:07 14° E 23:31:37 10° ESE visible
14 Dec 5.7 23:33:38 12° SE 23:33:38 12° SE 23:33:52 10° SE visible
